 Device Time, Barometric pressure (from vehicle)(psi),Engine kW (At the wheels)(kW),Engine Load(%),Engine RPM(rpm),Fuel Trim Bank 1 Long Term(%),Fuel Trim Bank 1 Short Term(%),Fuel trim Bank 1 Sensor 1(%),Intake Manifold Pressure(psi),O2 Bank 1 Sensor 1 Voltage(V),O2 Bank 1 Sensor 2 Voltage(V),Throttle Position(Manifold)(%)
25-Jun-2022 11:39:25.125,14.64881154,-,36.86274338,846,32.03125,4.6875,4.6875,6.67173595,0.155,0.14,13.72549057
25-Jun-2022 11:39:26.126,14.64881154,-,35.29411697,853,32.03125,0.78125,0,6.67173595,0.54500002,0.40000001,13.72549057
25-Jun-2022 11:39:27.125,14.64881154,-,36.86274338,840,32.8125,3.125,0,6.67173595,0.54500002,0.40000001,13.72549057
25-Jun-2022 11:39:28.125,14.64881154,-,36.86274338,852,32.8125,0.78125,0.78125,6.67173595,0.65499997,0.66000003,13.72549057
25-Jun-2022 11:39:29.125,14.64881154,-,35.29411697,860,32.03125,3.90625,-0.78125,6.67173595,0.685,0.69499999,13.72549057
25-Jun-2022 11:39:30.125,14.64881154,-,40.39215851,1181,25,2.34375,3.125,6.23662273,0.055,0.055,15.68627453
25-Jun-2022 11:39:31.125,14.64881154,-,31.76470566,1395,24.21875,5.46875,7.8125,6.23662273,0.055,0.055,14.90196037
25-Jun-2022 11:39:32.125,14.64881154,-,29.01960754,1469,24.21875,9.375,10.9375,5.36639631,0.065,0.065,14.90196037
25-Jun-2022 11:39:33.125,14.64881154,-,27.45098114,1499,24.21875,14.84375,13.28125,5.36639631,0.1,0.1,14.90196037
25-Jun-2022 11:39:34.125,14.64881154,-,27.45098114,1477,24.21875,13.28125,10.9375,5.36639631,0.66500002,0.28999999,15.29411793
25-Jun-2022 11:39:35.124,14.64881154,-,27.45098114,1477,24.21875,13.28125,10.9375,5.36639631,0.66500002,0.63499999,15.29411793
25-Jun-2022 11:39:36.125,14.64881154,-,29.01960754,1528,24.21875,7.8125,7.03125,5.36639631,0.69,0.68000001,15.29411793
25-Jun-2022 11:39:37.125,14.64881154,-,31.37254906,1660,24.21875,5.46875,8.59375,5.65647178,0.20999999,0.09,16.07843208
25-Jun-2022 11:39:38.125,14.64881154,-,32.15686417,1660,24.21875,6.25,10.9375,5.65647178,0.38999999,0.215,17.64705849
25-Jun-2022 11:39:39.125,14.64881154,-,29.41176414,2188,24.21875,11.71875,12.5,6.23662273,0.075,0.08,18.03921509
25-Jun-2022 11:39:40.124,14.64881154,-,36.47058868,2351,24.21875,14.84375,10.15625,6.23662273,0.73500001,0.08,19.6078434
25-Jun-2022 11:39:41.124,14.64881154,-,27.84313774,3244,24.21875,12.5,10.15625,5.51143404,0.73500001,0.74000001,19.6078434
25-Jun-2022 11:39:42.124,14.64881154,-,26.66666603,3328,24.21875,10.9375,10.15625,4.93128309,0.67000002,0.105,20
25-Jun-2022 11:39:43.125,14.64881154,-,25.09803963,3418,24.21875,10.9375,10.15625,4.78624535,0.67000002,0.685,20
25-Jun-2022 11:39:44.124,14.64881154,-,24.70588303,3470,24.21875,14.84375,14.84375,4.64120762,0.13,0.155,20
25-Jun-2022 11:39:45.126,14.64881154,-,24.70588303,3510,24.21875,8.59375,10.9375,4.64120762,0.63999999,0.61000001,20.3921566
25-Jun-2022 11:39:46.125,14.64881154,-,24.70588303,3518,24.21875,10.9375,11.71875,4.64120762,0.07,0.08,20.3921566
25-Jun-2022 11:39:47.125,14.64881154,-,24.70588303,3536,24.21875,14.0625,14.84375,4.64120762,0.16,0.63999999,20.3921566
25-Jun-2022 11:39:48.125,14.64881154,-,24.70588303,3558,24.21875,13.28125,13.28125,4.64120762,0.09,0.115,20.3921566
25-Jun-2022 11:39:49.125,14.64881154,-,24.70588303,3555,24.21875,14.0625,10.15625,4.64120762,0.71499997,0.70499998,20
25-Jun-2022 11:39:50.124,14.64881154,-,24.70588303,3553,24.21875,14.84375,10.15625,4.64120762,0.70499998,0.69499999,20
25-Jun-2022 11:39:51.124,14.64881154,-,24.70588303,3568,24.21875,7.03125,9.375,4.64120762,0.065,0.075,20
25-Jun-2022 11:39:52.125,14.64881154,-,24.70588303,3565,24.21875,13.28125,14.84375,4.64120762,0.14,0.18000001,20.3921566
25-Jun-2022 11:39:53.125,14.64881154,-,24.70588303,3574,24.21875,10.9375,9.375,4.64120762,0.70499998,0.69999999,20
25-Jun-2022 11:39:54.125,14.64881154,-,24.70588303,3586,24.21875,11.71875,13.28125,4.64120762,0.095,0.67500001,20.3921566
25-Jun-2022 11:39:55.125,14.64881154,-,24.70588303,3610,24.21875,3.90625,3.125,4.64120762,0.255,0.33500001,20.3921566
25-Jun-2022 11:39:56.125,14.64881154,-,24.70588303,3640,24.21875,14.0625,8.59375,4.64120762,0.67000002,0.67000002,20.3921566
25-Jun-2022 11:39:57.130,14.64881154,-,24.70588303,3656,24.21875,9.375,9.375,4.64120762,0.71499997,0.69999999,20.3921566
25-Jun-2022 11:39:58.125,14.64881154,-,24.70588303,3659,24.21875,7.8125,11.71875,4.64120762,0.09,0.12,20.3921566
25-Jun-2022 11:39:59.125,14.64881154,-,24.70588303,3645,24.21875,8.59375,3.90625,4.49616988,0.68000001,0.58499998,20.3921566
25-Jun-2022 11:40:00.125,14.64881154,-,24.70588303,3645,24.21875,13.28125,10.9375,4.64120762,0.60000002,0.59500003,20.3921566
25-Jun-2022 11:40:01.125,14.64881154,-,24.70588303,3655,24.21875,7.8125,10.9375,4.64120762,0.285,0.115,20.3921566
25-Jun-2022 11:40:02.125,14.64881154,-,24.70588303,3663,24.21875,7.8125,7.03125,4.64120762,0.39500001,0.38499999,20.3921566
25-Jun-2022 11:40:03.125,14.64881154,-,24.70588303,3661,24.21875,9.375,12.5,4.49616988,0.115,0.19,20.3921566
25-Jun-2022 11:40:04.125,14.64881154,-,24.70588303,3663,24.21875,14.0625,10.15625,4.64120762,0.08,0.1,20.3921566
25-Jun-2022 11:40:05.126,14.64881154,-,24.70588303,3676,24.21875,10.9375,10.15625,4.64120762,0.72000003,0.70499998,20.3921566
25-Jun-2022 11:40:06.126,14.64881154,-,24.70588303,3678,24.21875,10.9375,8.59375,4.49616988,0.69999999,0.69499999,20.3921566
25-Jun-2022 11:40:07.124,14.64881154,-,24.70588303,3668,24.21875,10.9375,11.71875,4.49616988,0.105,0.17,20.3921566
25-Jun-2022 11:40:08.126,14.64881154,-,24.70588303,3681,24.21875,9.375,9.375,4.49616988,0.73000002,0.70499998,20.3921566
25-Jun-2022 11:40:09.127,14.64881154,-,24.70588303,3684,24.21875,10.9375,12.5,4.49616988,0.115,0.16,20.3921566
25-Jun-2022 11:40:10.125,14.64881154,-,24.70588303,3680,24.21875,14.0625,13.28125,4.49616988,0.145,0.72500002,20.3921566
25-Jun-2022 11:40:11.125,14.64881154,-,24.70588303,3685,24.21875,7.03125,8.59375,4.49616988,0.73500001,0.67500001,20.3921566
25-Jun-2022 11:40:12.125,14.64881154,-,24.70588303,3691,24.21875,7.03125,8.59375,4.49616988,0.07,0.11,20.3921566
25-Jun-2022 11:40:13.125,14.64881154,-,24.70588303,3691,24.21875,7.8125,11.71875,4.49616988,0.115,0.20999999,20.3921566
25-Jun-2022 11:40:14.125,14.64881154,-,24.70588303,3704,24.21875,7.03125,6.25,4.49616988,0.315,0.19,20.3921566
25-Jun-2022 11:40:15.125,14.64881154,-,24.70588303,3720,24.21875,7.03125,10.9375,4.49616988,0.11,0.2,20.3921566
25-Jun-2022 11:40:16.125,14.64881154,-,24.70588303,3730,24.21875,6.25,10.15625,4.49616988,0.685,0.70999998,20.3921566
25-Jun-2022 11:40:17.125,14.64881154,-,24.70588303,3750,24.21875,7.03125,11.71875,4.49616988,0.105,0.185,20.3921566
25-Jun-2022 11:40:18.125,14.64881154,-,24.70588303,3750,24.21875,12.5,8.59375,4.49616988,0.72500002,0.72000003,20.3921566
25-Jun-2022 11:40:19.126,14.64881154,-,24.70588303,3759,24.21875,9.375,7.8125,4.49616988,0.69499999,0.70499998,20.3921566
25-Jun-2022 11:40:20.125,14.64881154,-,24.70588303,3756,24.21875,12.5,9.375,4.49616988,0.67500001,0.13500001,20.3921566
25-Jun-2022 11:40:21.125,14.64881154,-,24.70588303,3748,24.21875,13.28125,6.25,4.49616988,0.36500001,0.565,20.3921566
25-Jun-2022 11:40:22.125,14.64881154,-,24.70588303,3751,24.21875,12.5,13.28125,4.49616988,0.30500001,0.565,20.3921566
25-Jun-2022 11:40:23.124,14.64881154,-,24.70588303,3740,24.21875,7.8125,7.03125,4.49616988,0.68000001,0.16500001,20.3921566
25-Jun-2022 11:40:24.124,14.64881154,-,23.52941132,3746,24.21875,10.15625,7.03125,4.49616988,0.68000001,0.685,20.3921566
25-Jun-2022 11:40:25.126,14.64881154,-,24.70588303,3750,24.21875,10.15625,9.375,4.49616988,0.63999999,0.63999999,20.3921566
25-Jun-2022 11:40:26.125,14.64881154,-,23.52941132,3736,24.21875,12.5,7.8125,4.49616988,0.73500001,0.19,20.3921566
25-Jun-2022 11:40:27.126,14.64881154,-,23.52941132,3720,24.21875,9.375,11.71875,4.49616988,0.11,0.73500001,20.3921566
25-Jun-2022 11:40:28.125,14.64881154,-,23.52941132,3721,24.21875,7.8125,7.03125,4.49616988,0.64999998,0.61000001,20.3921566
25-Jun-2022 11:40:29.125,14.64881154,-,23.52941132,3714,24.21875,12.5,6.25,4.49616988,0.49000001,0.54000002,20.3921566
25-Jun-2022 11:40:30.125,14.64881154,-,23.52941132,3724,24.21875,11.71875,13.28125,4.49616988,0.41499999,0.54000002,20.3921566
25-Jun-2022 11:40:31.125,14.64881154,-,23.52941132,3734,24.21875,6.25,7.03125,4.49616988,0.61000001,0.67500001,20.3921566
25-Jun-2022 11:40:32.125,14.64881154,-,24.70588303,3735,24.21875,12.5,13.28125,4.49616988,0.435,0.495,20.3921566
25-Jun-2022 11:40:33.125,14.64881154,-,23.52941132,3746,24.21875,6.25,11.71875,4.49616988,0.105,0.32499999,20.3921566
25-Jun-2022 11:40:34.125,14.64881154,-,23.52941132,3748,24.21875,12.5,10.15625,4.49616988,0.2,0.74000001,20.3921566
25-Jun-2022 11:40:35.125,14.64881154,-,23.52941132,3738,24.21875,6.25,9.375,4.49616988,0.69,0.72000003,20.3921566
25-Jun-2022 11:40:36.125,14.64881154,-,23.52941132,3738,24.21875,6.25,11.71875,4.49616988,0.105,0.13500001,20.3921566
25-Jun-2022 11:40:37.124,14.64881154,-,23.52941132,3733,24.21875,6.25,11.71875,4.49616988,0.105,0.13500001,20.3921566
25-Jun-2022 11:40:38.125,14.64881154,-,23.52941132,3733,24.21875,8.59375,7.03125,4.49616988,0.47499999,0.44499999,20
25-Jun-2022 11:40:39.125,14.64881154,-,23.52941132,3730,24.21875,6.25,10.9375,4.49616988,0.1,0.2,20
25-Jun-2022 11:40:40.125,14.64881154,-,23.52941132,3707,24.21875,10.15625,7.8125,4.49616988,0.09,0.13500001,20
25-Jun-2022 11:40:41.125,14.64881154,-,23.52941132,3721,24.21875,6.25,10.15625,4.49616988,0.69,0.73500001,20
25-Jun-2022 11:40:42.125,14.64881154,-,23.52941132,3724,24.21875,6.25,10.15625,4.49616988,0.19499999,0.26499999,20
25-Jun-2022 11:40:43.125,14.64881154,-,23.52941132,3724,24.21875,13.28125,10.15625,4.49616988,0.1,0.15000001,20
25-Jun-2022 11:40:44.125,14.64881154,-,23.52941132,3735,24.21875,6.25,7.03125,4.49616988,0.09,0.155,20
25-Jun-2022 11:40:45.125,14.64881154,-,23.52941132,3744,24.21875,10.15625,10.9375,4.49616988,0.09,0.16,20.3921566
25-Jun-2022 11:40:46.124,14.64881154,-,23.52941132,3751,24.21875,8.59375,7.8125,4.49616988,0.72000003,0.72500002,20
25-Jun-2022 11:40:47.124,14.64881154,-,23.52941132,3755,24.21875,8.59375,7.8125,4.49616988,0.72000003,0.72500002,20
25-Jun-2022 11:40:48.125,14.64881154,-,23.52941132,3759,24.21875,5.46875,10.9375,4.35113214,0.105,0.20999999,20
25-Jun-2022 11:40:49.125,14.64881154,-,23.52941132,3751,24.21875,12.5,8.59375,4.35113214,0.73000002,0.69,20
25-Jun-2022 11:40:50.125,14.64881154,-,23.52941132,3755,24.21875,11.71875,12.5,4.49616988,0.235,0.19499999,20
25-Jun-2022 11:40:51.126,14.64881154,-,23.52941132,3756,24.21875,8.59375,7.03125,4.49616988,0.64999998,0.70499998,20
25-Jun-2022 11:40:52.125,14.64881154,-,23.52941132,3756,24.21875,8.59375,7.03125,4.49616988,0.64999998,0.70499998,20
25-Jun-2022 11:40:53.125,14.64881154,-,23.52941132,3756,24.21875,10.9375,12.5,4.35113214,0.15000001,0.19,20
25-Jun-2022 11:40:54.125,14.64881154,-,23.52941132,3761,24.21875,13.28125,7.8125,4.35113214,0.65499997,0.70999998,20
25-Jun-2022 11:40:55.124,14.64881154,-,23.52941132,3764,24.21875,8.59375,7.8125,4.35113214,0.65499997,0.70999998,20.3921566
25-Jun-2022 11:40:56.129,14.64881154,-,23.52941132,3774,24.21875,6.25,10.15625,4.49616988,0.1,0.71499997,20.3921566
25-Jun-2022 11:40:57.125,14.64881154,-,23.52941132,3770,24.21875,6.25,10.15625,4.49616988,0.1,0.20999999,20.3921566
25-Jun-2022 11:40:58.126,14.64881154,-,23.52941132,3770,24.21875,12.5,14.0625,4.49616988,0.465,0.63999999,20
25-Jun-2022 11:40:59.125,14.64881154,-,23.52941132,3769,24.21875,7.8125,12.5,4.35113214,0.2,0.22,20
25-Jun-2022 11:41:00.125,14.64881154,-,23.52941132,3760,24.21875,10.9375,10.9375,4.35113214,0.105,0.38499999,20
25-Jun-2022 11:41:01.125,14.64881154,-,23.52941132,3751,24.21875,6.25,5.46875,4.35113214,0.33000001,0.74000001,20
25-Jun-2022 11:41:02.124,14.64881154,-,23.52941132,3746,24.21875,10.15625,11.71875,4.49616988,0.11,0.41499999,20
25-Jun-2022 11:41:03.124,14.64881154,-,23.52941132,3764,24.21875,10.15625,10.15625,4.35113214,0.125,0.41499999,20
25-Jun-2022 11:41:04.126,14.64881154,-,23.52941132,3782,24.21875,7.8125,7.03125,4.35113214,0.62,0.72500002,20
25-Jun-2022 11:41:05.125,14.64881154,-,23.52941132,3787,24.21875,9.375,13.28125,4.35113214,0.215,0.28,20
25-Jun-2022 11:41:06.124,14.64881154,-,23.52941132,3785,24.21875,7.8125,10.15625,4.35113214,0.085,0.155,20.3921566
25-Jun-2022 11:41:07.124,14.64881154,-,23.52941132,3810,24.21875,10.15625,12.5,4.49616988,0.12,0.22499999,20.3921566
25-Jun-2022 11:41:08.124,14.64881154,-,23.52941132,3866,24.21875,7.8125,7.03125,4.35113214,0.34999999,0.44499999,20.3921566
25-Jun-2022 11:41:09.125,14.64881154,-,23.52941132,3875,24.21875,7.03125,10.9375,4.35113214,0.115,0.44499999,20.3921566
25-Jun-2022 11:41:10.126,14.64881154,-,23.52941132,3895,24.21875,10.9375,10.9375,4.35113214,0.115,0.29499999,20.3921566
25-Jun-2022 11:41:11.124,14.64881154,-,23.52941132,3899,24.21875,4.6875,13.28125,4.35113214,0.155,0.66500002,20.3921566
25-Jun-2022 11:41:12.124,14.64881154,-,23.52941132,3889,24.21875,4.6875,3.90625,4.35113214,0.68000001,0.155,20.3921566
25-Jun-2022 11:41:13.125,14.64881154,-,23.52941132,3882,24.21875,12.5,6.25,4.35113214,0.34,0.565,20.3921566
25-Jun-2022 11:41:14.124,14.64881154,-,23.52941132,3881,24.21875,10.15625,8.59375,4.35113214,0.70999998,0.72000003,20.3921566
25-Jun-2022 11:41:15.124,14.64881154,-,23.52941132,3885,24.21875,6.25,10.9375,4.35113214,0.11,0.245,20.3921566
25-Jun-2022 11:41:16.126,14.64881154,-,23.52941132,3874,24.21875,3.90625,3.125,4.35113214,0.68000001,0.69999999,20.3921566
25-Jun-2022 11:41:17.125,14.64881154,-,23.52941132,3879,24.21875,8.59375,7.03125,4.35113214,0.375,0.565,20.3921566
25-Jun-2022 11:41:18.124,14.64881154,-,23.52941132,3899,24.21875,13.28125,9.375,4.35113214,0.73000002,0.73000002,20.3921566
25-Jun-2022 11:41:19.125,14.64881154,-,23.52941132,3904,24.21875,13.28125,9.375,4.35113214,0.70499998,0.66000003,20.3921566
25-Jun-2022 11:41:20.124,14.64881154,-,23.52941132,3898,24.21875,14.0625,7.8125,4.35113214,0.07,0.155,20.3921566
25-Jun-2022 11:41:21.124,14.64881154,-,23.52941132,3904,24.21875,9.375,8.59375,4.35113214,0.70499998,0.41999999,20.3921566
25-Jun-2022 11:41:22.125,14.64881154,-,23.52941132,3910,24.21875,10.9375,13.28125,4.35113214,0.19,0.22499999,20.3921566
25-Jun-2022 11:41:23.125,14.64881154,-,23.52941132,3912,24.21875,10.9375,7.8125,4.35113214,0.70499998,0.745,20.3921566
25-Jun-2022 11:41:24.125,14.64881154,-,23.52941132,3904,24.21875,10.15625,11.71875,4.35113214,0.11,0.205,20.3921566
25-Jun-2022 11:41:25.124,14.64881154,-,23.52941132,3905,24.21875,9.375,13.28125,4.35113214,0.31999999,0.315,20.3921566
25-Jun-2022 11:41:26.126,14.64881154,-,23.52941132,3947,24.21875,9.375,10.15625,4.64120762,0.215,0.35499999,20.3921566
25-Jun-2022 11:41:27.125,14.64881154,-,25.88235283,3947,24.21875,8.59375,10.15625,4.64120762,0.215,0.35499999,20.3921566
25-Jun-2022 11:41:28.125,14.64881154,-,25.88235283,4218,24.21875,8.59375,8.59375,4.49616988,0.72500002,0.25,20.3921566
25-Jun-2022 11:41:29.125,14.64881154,-,24.31372643,4218,24.21875,11.71875,12.5,4.49616988,0.22,0.25,21.1764698
25-Jun-2022 11:41:30.125,14.64881154,-,23.13725471,4274,24.21875,5.46875,11.71875,4.35113214,0.185,0.245,21.1764698
25-Jun-2022 11:41:31.127,14.64881154,-,23.13725471,4296,24.21875,5.46875,10.9375,4.35113214,0.11,0.285,21.1764698
25-Jun-2022 11:41:32.125,14.64881154,-,23.13725471,4291,24.21875,5.46875,10.9375,4.35113214,0.11,0.185,21.1764698
25-Jun-2022 11:41:33.127,14.64881154,-,23.13725471,4291,24.21875,5.46875,9.375,4.35113214,0.19,0.285,21.1764698
25-Jun-2022 11:41:34.126,14.64881154,-,23.13725471,4289,24.21875,10.15625,6.25,4.35113214,0.69999999,0.69999999,21.1764698
25-Jun-2022 11:41:35.126,14.64881154,-,23.13725471,4291,24.21875,5.46875,10.15625,4.35113214,0.095,0.17,21.1764698
25-Jun-2022 11:41:36.126,14.64881154,-,23.13725471,4291,24.21875,10.9375,12.5,4.35113214,0.28999999,0.72500002,21.1764698
25-Jun-2022 11:41:37.125,14.64881154,-,14.90196037,4291,24.21875,10.9375,0,4.35113214,0,0.1,16.47058868
25-Jun-2022 11:41:38.125,14.64881154,-,15.29411793,1379,24.21875,0,0,3.48090571,0,0.1,13.33333302
25-Jun-2022 11:41:39.125,14.64881154,-,23.52941132,1058,32.8125,0,0,6.52669821,0.03,0.66000003,14.90196037
25-Jun-2022 11:41:40.125,14.64881154,-,33.33333206,1058,32.8125,-3.90625,-3.90625,6.52669821,0.73000002,0.45500001,14.11764717
25-Jun-2022 11:41:41.124,14.64881154,-,33.33333206,978,33.59375,0,-3.90625,6.52669821,0.73000002,0.45500001,14.11764717
25-Jun-2022 11:41:42.125,14.64881154,-,33.33333206,938,32.8125,1.5625,1.5625,6.38166047,0.1,0.17,13.72549057
25-Jun-2022 11:41:43.125,14.64881154,-,33.72549057,895,32.8125,-0.78125,-0.78125,6.67173595,0.685,0.19,13.72549057
25-Jun-2022 11:41:44.126,14.64881154,-,33.72549057,869,32.8125,-0.78125,-0.78125,6.67173595,0.685,0.73500001,13.72549057
25-Jun-2022 11:41:45.125,14.64881154,-,33.72549057,843,32.8125,3.125,3.125,6.67173595,0.2,0.26499999,13.72549057
25-Jun-2022 11:41:46.125,14.64881154,-,33.72549057,847,32.8125,3.125,3.125,6.67173595,0.095,0.57499999,13.72549057
25-Jun-2022 11:41:47.125,14.64881154,-,33.72549057,853,32.8125,3.90625,4.6875,6.67173595,0.5,0.51499999,13.72549057
25-Jun-2022 11:41:48.129,14.64881154,-,32.54901886,841,32.8125,2.34375,4.6875,6.67173595,0.5,0.51499999,13.72549057
25-Jun-2022 11:41:49.124,14.64881154,-,33.72549057,845,32.8125,3.90625,3.90625,6.52669821,0.125,0.20999999,13.72549057
25-Jun-2022 11:41:50.125,14.64881154,-,33.72549057,836,32.8125,0.78125,0.78125,6.52669821,0.64499998,0.72500002,13.72549057
25-Jun-2022 11:41:51.126,14.64881154,-,33.72549057,847,32.8125,3.90625,4.6875,6.67173595,0.145,0.23,13.72549057
25-Jun-2022 11:41:52.125,14.64881154,-,33.72549057,852,32.8125,1.5625,0.78125,6.52669821,0.69499999,0.76499999,13.72549057
25-Jun-2022 11:41:53.125,14.64881154,-,33.72549057,847,33.59375,3.125,3.125,6.52669821,0.11,0.76499999,13.72549057
25-Jun-2022 11:41:54.124,14.64881154,-,33.72549057,849,32.8125,3.90625,1.5625,6.67173595,0.67000002,0.73500001,13.72549057
25-Jun-2022 11:41:55.124,14.64881154,-,33.72549057,850,32.8125,0,2.34375,6.67173595,0.33500001,0.57999998,13.72549057
25-Jun-2022 11:41:56.125,14.64881154,-,33.72549057,855,32.8125,3.90625,3.90625,6.52669821,0.175,0.33500001,13.72549057
25-Jun-2022 11:41:57.125,14.64881154,-,33.72549057,848,32.8125,-0.78125,0.78125,6.52669821,0.69999999,0.75999999,13.72549057
25-Jun-2022 11:41:58.125,14.64881154,-,33.72549057,846,32.8125,3.125,3.125,6.52669821,0.105,0.18000001,13.72549057
25-Jun-2022 11:41:59.125,14.64881154,-,33.72549057,850,32.8125,3.90625,0.78125,6.52669821,0.67000002,0.73500001,13.72549057
25-Jun-2022 11:42:00.124,14.64881154,-,33.72549057,842,32.8125,3.125,3.125,6.52669821,0.105,0.285,13.72549057
25-Jun-2022 11:42:01.124,14.64881154,-,33.72549057,849,32.8125,0,3.125,6.52669821,0.115,0.34,13.72549057
25-Jun-2022 11:42:02.126,14.64881154,-,33.72549057,840,32.8125,2.34375,-0.78125,6.52669821,0.55500001,0.66000003,13.72549057
25-Jun-2022 11:42:03.124,14.64881154,-,33.72549057,860,32.8125,2.34375,3.125,6.52669821,0.11,0.16500001,13.72549057
25-Jun-2022 11:42:04.125,14.64881154,-,33.72549057,841,32.8125,0,0,6.52669821,0.67500001,0.71499997,13.72549057
25-Jun-2022 11:42:05.125,14.64881154,-,33.72549057,846,32.8125,3.125,3.125,6.52669821,0.105,0.155,13.72549057
25-Jun-2022 11:42:06.125,14.64881154,-,33.72549057,850,32.8125,0,-0.78125,6.52669821,0.61500001,0.69999999,13.72549057
25-Jun-2022 11:42:07.125,14.64881154,-,35.29411697,844,32.8125,2.34375,2.34375,6.52669821,0.12,0.38999999,13.72549057
25-Jun-2022 11:42:08.124,14.64881154,-,33.72549057,847,32.8125,-0.78125,-0.78125,6.52669821,0.66500002,0.70999998,13.72549057
25-Jun-2022 11:42:09.124,14.64881154,-,35.29411697,845,32.8125,2.34375,2.34375,6.52669821,0.105,0.215,13.72549057
25-Jun-2022 11:42:10.124,14.64881154,-,33.72549057,854,32.8125,-0.78125,-0.78125,6.52669821,0.66500002,0.70999998,13.72549057
25-Jun-2022 11:42:11.125,14.64881154,-,37.25490189,1389,25.78125,-1.5625,2.34375,6.96181142,0.12,0.44999999,15.29411793
25-Jun-2022 11:42:12.124,14.64881154,-,30.19607925,1603,24.21875,7.8125,8.59375,5.51143404,0.065,0.08,15.29411793
25-Jun-2022 11:42:13.125,14.64881154,-,28.62745094,1716,24.21875,10.9375,7.03125,5.36639631,0.72000003,0.75,15.29411793
25-Jun-2022 11:42:14.125,14.64881154,-,29.41176414,1716,24.21875,10.15625,6.25,5.36639631,0.70999998,0.755,16.07843208
25-Jun-2022 11:42:15.125,14.64881154,-,28.23529434,2030,24.21875,3.90625,7.03125,5.07632083,0.1,0.2,16.47058868
25-Jun-2022 11:42:16.124,14.64881154,-,28.23529434,2135,24.21875,3.90625,7.03125,4.93128309,0.095,0.11,16.86274529
25-Jun-2022 11:42:17.125,14.64881154,-,24.31372643,2226,24.21875,9.375,8.59375,4.93128309,0.53500003,0.58999997,16.86274529
25-Jun-2022 11:42:18.125,14.64881154,-,27.05882263,2353,24.21875,8.59375,10.9375,5.36639631,0.66500002,0.69999999,17.64705849
25-Jun-2022 11:42:19.125,14.64881154,-,27.05882263,2610,24.21875,10.15625,8.59375,5.36639631,0.68000001,0.46000001,17.64705849
25-Jun-2022 11:42:20.125,14.64881154,-,26.66666603,2673,24.21875,8.59375,7.8125,5.22135857,0.66000003,0.71499997,18.03921509
25-Jun-2022 11:42:21.125,14.64881154,-,25.09803963,2810,24.21875,8.59375,12.5,4.93128309,0.235,0.47999999,18.03921509
25-Jun-2022 11:42:22.125,14.64881154,-,25.09803963,2907,24.21875,14.0625,14.84375,4.93128309,0.125,0.19,18.8235302
25-Jun-2022 11:42:23.124,14.64881154,-,23.52941132,3035,24.21875,14.84375,14.84375,4.78624535,0.22,0.56,18.8235302
25-Jun-2022 11:42:24.124,14.64881154,-,23.52941132,3102,24.21875,13.28125,14.0625,4.78624535,0.085,0.1,18.8235302
25-Jun-2022 11:42:25.125,14.64881154,-,23.52941132,3126,24.21875,13.28125,14.0625,4.64120762,0.095,0.115,18.8235302
25-Jun-2022 11:42:26.126,14.64881154,-,24.31372643,3181,24.21875,14.84375,10.9375,4.78624535,0.60000002,0.27000001,19.2156868
25-Jun-2022 11:42:27.125,14.64881154,-,23.13725471,3242,24.21875,14.84375,14.84375,4.49616988,0.5,0.66000003,18.8235302
25-Jun-2022 11:42:28.124,14.64881154,-,23.13725471,3253,24.21875,14.84375,10.9375,4.49616988,0.65499997,0.53500003,18.8235302
25-Jun-2022 11:42:29.124,14.64881154,-,23.13725471,3250,24.21875,10.9375,11.71875,4.49616988,0.08,0.205,18.8235302
25-Jun-2022 11:42:30.125,14.64881154,-,23.13725471,3249,24.21875,14.84375,12.5,4.49616988,0.23,0.085,18.8235302
25-Jun-2022 11:42:31.125,14.64881154,-,23.13725471,3263,24.21875,9.375,13.28125,4.49616988,0.13,0.33000001,18.8235302
25-Jun-2022 11:42:32.125,14.64881154,-,23.13725471,3267,24.21875,13.28125,14.0625,4.49616988,0.1,0.145,18.8235302
25-Jun-2022 11:42:33.125,14.64881154,-,23.13725471,3267,24.21875,14.84375,14.84375,4.49616988,0.47999999,0.57499999,18.8235302
25-Jun-2022 11:42:34.124,14.64881154,-,23.13725471,3256,24.21875,12.5,7.8125,4.49616988,0.065,0.07,18.8235302
25-Jun-2022 11:42:35.125,14.64881154,-,23.13725471,3339,24.21875,8.59375,14.0625,4.93128309,0.105,0.125,19.2156868
25-Jun-2022 11:42:36.125,14.64881154,-,26.27450943,3339,24.21875,14.84375,14.84375,4.93128309,0.20999999,0.39500001,20.7843132
25-Jun-2022 11:42:37.124,14.64881154,-,24.70588303,3774,24.21875,10.15625,8.59375,4.78624535,0.67500001,0.39500001,20.7843132
25-Jun-2022 11:42:38.125,14.64881154,-,11.76470566,3492,24.21875,0,0,2.61067928,0,0.01,15.29411793
25-Jun-2022 11:42:39.125,14.64881154,-,16.47058868,2229,24.21875,0,0,3.33586797,0,0.02,13.72549057
25-Jun-2022 11:42:40.125,14.64881154,-,33.33333206,1085,31.25,-3.125,-3.90625,5.65647178,0.76999998,0.75,14.50980377
25-Jun-2022 11:42:41.124,14.64881154,-,33.33333206,997,33.59375,0,-3.90625,6.38166047,0.76999998,0.75,14.50980377
25-Jun-2022 11:42:42.125,14.64881154,-,32.15686417,960,32.8125,0,0.78125,6.23662273,0.085,0.095,14.11764717
25-Jun-2022 11:42:43.125,14.64881154,-,32.15686417,960,32.8125,1.5625,1.5625,6.38166047,0.11,0.12,14.11764717
25-Jun-2022 11:42:44.124,14.64881154,-,33.72549057,912,32.8125,-0.78125,-1.5625,6.38166047,0.41,0.52999997,13.72549057
25-Jun-2022 11:42:45.125,14.64881154,-,35.29411697,872,32.8125,3.125,-1.5625,6.81677369,0.41,0.52999997,13.72549057
25-Jun-2022 11:42:46.127,14.64881154,-,35.29411697,849,32.8125,3.125,0,6.67173595,0.63999999,0.68000001,13.72549057